DW2213 Weather Reports


Display with metric or nautical units.
time (UTC)temp
F
wind
direction
speed
MPH
gust
MPH
rain 1hr
in
rain 24hr
in
rain mn
in
humidity
%
barometer
mb
20210625131800 82 105 9.0 13.0 0.00 0.00 0.00 51 1017.1
20210625131300 82 101 7.0 13.0 0.00 0.00 0.00 50 1017.2
20210625130801 83 106 7.0 13.0 0.00 0.00 0.00 47 1017.2
20210625130301 83 118 9.0 14.0 0.00 0.00 0.00 45 1017.3
20210625125801 83 123 7.0 13.0 0.00 0.00 0.00 47 1017.3
20210625124801 83 119 7.0 13.0 0.00 0.00 0.00 48 1017.4
20210625124301 83 87 6.0 12.0 0.00 0.00 0.00 47 1017.5
20210625123801 83 102 6.0 14.0 0.00 0.00 0.00 46 1017.5
20210625122800 82 140 6.0 13.0 0.00 0.00 0.00 48 1017.6
20210625122301 83 101 6.0 12.0 0.00 0.00 0.00 48 1017.7
20210625121801 83 83 5.0 13.0 0.00 0.00 0.00 48 1017.7
20210625120801 81 118 7.0 12.0 0.00 0.00 0.00 49 1017.9
20210625120301 82 105 7.0 13.0 0.00 0.00 0.00 49 1017.9
20210625113802 81 124 7.0 12.0 0.00 0.00 0.00 50 1018.2
20210625113301 81 89 6.0 13.0 0.00 0.00 0.00 52 1018.3
20210625112802 82 99 5.0 9.0 0.00 0.00 0.00 51 1018.3
20210625111302 82 123 6.0 12.0 0.00 0.00 0.00 48 1018.4
20210625110801 81 112 5.0 13.0 0.00 0.00 0.00 45 1018.5
20210625110301 81 61 5.0 10.0 0.00 0.00 0.00 46 1018.5
20210625105802 81 97 5.0 9.0 0.00 0.00 0.00 46 1018.5
20210625105305 81 116 7.0 12.0 0.00 0.00 0.00 43 1018.6
20210625104303 82 97 6.0 9.0 0.00 0.00 0.00 38 1018.7
20210625103802 81 105 7.0 12.0 0.00 0.00 0.00 40 1018.7
20210625102802 81 83 5.0 9.0 0.00 0.00 0.00 42 1018.8
20210625102305 82 106 6.0 12.0 0.00 0.00 0.00 41 1018.9
20210625101303 81 99 7.0 12.0 0.00 0.00 0.00 44 1018.9
20210625100802 80 67 4.0 8.0 0.00 0.00 0.00 45 1018.9
20210625095803 81 110 5.0 9.0 0.00 0.00 0.00 45 1018.9
20210625095305 81 110 4.0 8.0 0.00 0.00 0.00 46 1018.9
20210625093803 81 125 5.0 10.0 0.00 0.00 0.00 44 1019.0
20210625093302 80 98 5.0 6.0 0.00 0.00 0.00 45 1019.0
20210625092802 80 54 2.0 6.0 0.00 0.00 0.00 44 1019.0
20210625091304 79 123 3.0 5.0 0.00 0.00 0.00 48 1019.1
20210625090803 78 123 2.0 5.0 0.00 0.00 0.00 48 1019.1
20210625090303 78 125 2.0 5.0 0.00 0.00 0.00 49 1019.1
20210625085803 78 126 0.0 3.0 0.00 0.00 0.00 48 1019.1
20210625085305 78 126 4.0 6.0 0.00 0.00 0.00 47 1019.1
20210625084803 77 340 1.0 3.0 0.00 0.00 0.00 49 1019.1
20210625084303 77 343 2.0 5.0 0.00 0.00 0.00 50 1019.1
20210625083303 77 294 1.0 3.0 0.00 0.00 0.00 51 1019.2
20210625082804 76 294 1.0 3.0 0.00 0.00 0.00 53 1019.2
20210625082305 76 294 1.0 5.0 0.00 0.00 0.00 54 1019.3
20210625081804 76 289 2.0 3.0 0.00 0.00 0.00 54 1019.3
20210625081304 75 273 1.0 3.0 0.00 0.00 0.00 57 1019.2
20210625080803 75 275 2.0 3.0 0.00 0.00 0.00 58 1019.2
20210625080304 75 277 3.0 3.0 0.00 0.00 0.00 58 1019.3
20210625075804 74 287 3.0 6.0 0.00 0.00 0.00 59 1019.3
20210625075305 74 262 1.0 5.0 0.00 0.00 0.00 61 1019.3
20210625074804 74 259 2.0 5.0 0.00 0.00 0.00 60 1019.3
20210625074304 74 256 1.0 3.0 0.00 0.00 0.00 61 1019.3
20210625073804 74 254 2.0 5.0 0.00 0.00 0.00 62 1019.3
20210625073304 74 242 2.0 3.0 0.00 0.00 0.00 64 1019.3
20210625072305 73 257 2.0 5.0 0.00 0.00 0.00 67 1019.3
20210625071805 73 254 2.0 3.0 0.00 0.00 0.00 67 1019.2
20210625070805 72 264 2.0 7.0 0.00 0.00 0.00 71 1019.2
20210625070305 72 255 2.0 5.0 0.00 0.00 0.00 72 1019.2
20210625065805 71 259 2.0 5.0 0.00 0.00 0.00 73 1019.1
20210625064804 71 269 2.0 6.0 0.00 0.00 0.00 75 1019.1
20210625063804 70 242 1.0 3.0 0.00 0.00 0.00 77 1019.1
20210625062305 68 227 1.0 3.0 0.00 0.00 0.00 80 1019.0
20210625061804 68 227 1.0 3.0 0.00 0.00 0.00 82 1019.0
20210625061304 66 227 1.0 3.0 0.00 0.00 0.00 84 1019.0
20210625060804 66 227 1.0 3.0 0.00 0.00 0.00 84 1019.0
20210625060305 65 227 0.0 3.0 0.00 0.00 0.00 84 1019.0
20210625055306 65 227 0.0 3.0 0.00 0.00 0.00 84 1019.0
20210625054318 65 227 2.0 3.0 0.00 0.00 0.00 83 1019.0
20210625053818 65 227 1.0 3.0 0.00 0.00 0.00 83 1018.9
20210625053318 65 227 1.0 3.0 0.00 0.00 0.00 83 1018.9
20210625052818 65 227 2.0 3.0 0.00 0.00 0.00 83 1018.9
20210625052318 65 223 2.0 3.0 0.00 0.00 0.00 83 1018.9
20210625050818 65 223 2.0 3.0 0.00 0.00 0.00 83 1018.8
20210625050317 65 223 2.0 3.0 0.00 0.00 0.00 83 1018.7
20210625045818 65 223 2.0 3.0 0.00 0.00 0.00 83 1018.7
20210625045318 65 223 2.0 3.0 0.00 0.00 0.00 83 1018.7
20210625044818 65 220 1.0 3.0 0.00 0.00 0.00 83 1018.7
20210625043819 65 220 2.0 3.0 0.00 0.00 0.00 82 1018.7
20210625042818 65 207 1.0 3.0 0.00 0.00 0.00 83 1018.8
20210625041818 65 211 1.0 3.0 0.00 0.00 0.00 82 1018.7
20210625040818 65 211 1.0 3.0 0.00 0.00 0.00 82 1018.7
20210625040318 65 211 2.0 3.0 0.00 0.00 0.00 82 1018.7
20210625035817 65 211 1.0 3.0 0.00 0.00 0.00 82 1018.8
20210625035318 65 210 1.0 3.0 0.00 0.00 0.00 82 1018.8
20210625034818 65 209 1.0 3.0 0.00 0.00 0.00 82 1018.8
20210625034318 65 209 2.0 5.0 0.00 0.00 0.00 82 1018.9
20210625033317 66 208 1.0 3.0 0.00 0.00 0.00 82 1018.8
20210625032817 66 208 2.0 3.0 0.00 0.00 0.00 82 1018.8
20210625032318 66 207 1.0 3.0 0.00 0.00 0.00 82 1018.9
20210625030318 66 207 1.0 3.0 0.00 0.00 0.00 82 1018.9
20210625025318 66 207 1.0 3.0 0.00 0.00 0.00 81 1018.9
20210625024817 66 207 2.0 3.0 0.00 0.00 0.00 81 1019.0
20210625024317 66 207 1.0 2.0 0.00 0.00 0.00 81 1019.0
20210625023317 67 207 1.0 3.0 0.00 0.00 0.00 81 1019.1
20210625022818 67 207 2.0 3.0 0.00 0.00 0.00 81 1019.1
20210625021818 67 207 1.0 3.0 0.00 0.00 0.00 81 1019.2
20210625020817 67 207 2.0 3.0 0.00 0.00 0.00 81 1019.2
20210625020318 67 207 2.0 5.0 0.00 0.00 0.00 81 1019.2
20210625015818 67 206 1.0 3.0 0.00 0.00 0.00 80 1019.3
20210625015318 68 206 2.0 3.0 0.00 0.00 0.00 80 1019.4
20210625014818 68 206 0.0 2.0 0.00 0.00 0.00 80 1019.4
20210625014317 68 206 0.0 0.0 0.00 0.00 0.00 80 1019.4
20210625013318 68 206 1.0 3.0 0.00 0.00 0.00 80 1019.5
20210625012817 68 206 1.0 2.0 0.00 0.00 0.00 80 1019.5
20210625011818 68 206 2.0 3.0 0.00 0.00 0.00 80 1019.5
20210625010317 69 196 2.0 5.0 0.00 0.00 0.00 81 1019.5
20210625005818 69 161 1.0 3.0 0.00 0.00 0.00 80 1019.6
20210625005318 69 161 1.0 2.0 0.00 0.00 0.00 80 1019.6
20210625003817 69 110 1.0 1.0 0.00 0.00 0.00 80 1019.7
20210625003317 69 110 1.0 2.0 0.00 0.00 0.00 80 1019.7
20210625002817 69 110 1.0 2.0 0.00 0.00 0.00 80 1019.7
20210625002318 69 110 0.0 2.0 0.00 0.00 0.00 79 1019.7
20210625001318 70 110 0.0 2.0 0.00 0.00 0.00 79 1019.7
20210625000818 70 110 1.0 2.0 0.00 0.00 0.00 78 1019.8
20210625000317 70 110 1.0 2.0 0.00 0.00 0.00 78 1019.7
20210624235818 70 110 1.0 2.0 0.00 0.00 0.00 78 1019.8
20210624235318 70 110 1.0 2.0 0.00 0.00 0.00 77 1019.8
20210624234817 70 110 0.0 1.0 0.00 0.00 0.00 77 1019.8
20210624234317 71 110 2.0 3.0 0.00 0.00 0.00 76 1019.8
20210624233817 71 110 0.0 2.0 0.00 0.00 0.00 76 1019.8
20210624233318 71 110 0.0 2.0 0.00 0.00 0.00 76 1019.8
20210624232818 71 110 2.0 3.0 0.00 0.00 0.00 76 1019.8
20210624232318 71 110 0.0 1.0 0.00 0.00 0.00 75 1019.8
20210624231817 71 110 1.0 2.0 0.00 0.00 0.00 75 1019.8
20210624231318 72 110 0.0 1.0 0.00 0.00 0.00 74 1019.8
20210624230317 72 110 0.0 0.0 0.00 0.00 0.00 73 1019.9
20210624225817 72 110 0.0 3.0 0.00 0.00 0.00 73 1019.9
20210624225317 72 108 1.0 3.0 0.00 0.00 0.00 72 1019.9
20210624224817 72 107 0.0 3.0 0.00 0.00 0.00 72 1019.9
20210624224317 72 107 1.0 3.0 0.00 0.00 0.00 71 1019.9
20210624223818 73 107 1.0 2.0 0.00 0.00 0.00 71 1019.8
20210624221817 73 107 0.0 2.0 0.00 0.00 0.00 71 1019.7
20210624221317 73 107 0.0 1.0 0.00 0.00 0.00 71 1019.7
20210624220903 73 107 0.0 2.0 0.00 0.00 0.00 70 1019.7
20210624220317 73 107 1.0 3.0 0.00 0.00 0.00 70 1019.6
20210624215817 73 107 1.0 3.0 0.00 0.00 0.00 70 1019.6
20210624214817 73 107 3.0 3.0 0.00 0.00 0.00 70 1019.6
20210624214318 73 107 1.0 3.0 0.00 0.00 0.00 70 1019.5
20210624213818 73 107 1.0 2.0 0.00 0.00 0.00 70 1019.5
20210624213317 73 107 0.0 2.0 0.00 0.00 0.00 70 1019.5
20210624212818 73 107 0.0 3.0 0.00 0.00 0.00 70 1019.6
20210624212317 73 107 2.0 3.0 0.00 0.00 0.00 70 1019.5
20210624211317 73 107 1.0 3.0 0.00 0.00 0.00 70 1019.4
20210624210817 73 107 1.0 3.0 0.00 0.00 0.00 70 1019.4
20210624210317 73 107 1.0 6.0 0.00 0.00 0.00 70 1019.3
20210624205817 74 105 2.0 5.0 0.00 0.00 0.00 70 1019.3
20210624205317 74 105 3.0 5.0 0.00 0.00 0.00 70 1019.2
20210624204817 74 105 1.0 5.0 0.00 0.00 0.00 70 1019.1
20210624203817 74 105 3.0 6.0 0.00 0.00 0.00 69 1019.0
20210624203317 74 99 3.0 5.0 0.00 0.00 0.00 69 1018.9
20210624202818 74 98 3.0 5.0 0.00 0.00 0.00 69 1018.8
20210624202317 74 98 1.0 6.0 0.00 0.00 0.00 68 1018.7
20210624201817 74 96 2.0 5.0 0.00 0.00 0.00 68 1018.6
20210624200817 75 98 3.0 5.0 0.00 0.00 0.00 67 1018.5
20210624200317 75 92 3.0 6.0 0.00 0.00 0.00 66 1018.4
20210624195817 75 111 4.0 6.0 0.00 0.00 0.00 66 1018.3
20210624195317 75 96 1.0 5.0 0.00 0.00 0.00 66 1018.3
20210624194818 75 101 4.0 6.0 0.00 0.00 0.00 65 1018.3
20210624194317 75 118 5.0 6.0 0.00 0.00 0.00 65 1018.2
20210624193817 76 125 3.0 7.0 0.00 0.00 0.00 64 1018.3
20210624193318 76 123 4.0 7.0 0.00 0.00 0.00 63 1018.2
20210624192317 76 121 3.0 7.0 0.00 0.00 0.00 63 1018.1
20210624191818 76 115 4.0 8.0 0.00 0.00 0.00 63 1018.1
20210624191318 76 102 4.0 8.0 0.00 0.00 0.00 62 1018.1
20210624190817 77 129 3.0 7.0 0.00 0.00 0.00 62 1018.1
20210624185817 77 96 4.0 7.0 0.00 0.00 0.00 61 1018.0
20210624185317 77 107 5.0 8.0 0.00 0.00 0.00 60 1018.0
20210624184817 77 125 5.0 8.0 0.00 0.00 0.00 60 1018.0
20210624184317 77 90 2.0 7.0 0.00 0.00 0.00 60 1017.9
20210624183817 77 152 6.0 9.0 0.00 0.00 0.00 60 1017.9
20210624183317 77 139 5.0 12.0 0.00 0.00 0.00 60 1017.9
20210624182817 77 137 5.0 10.0 0.00 0.00 0.00 59 1018.0
20210624182317 77 149 8.0 12.0 0.00 0.00 0.00 59 1018.0
20210624181317 77 104 6.0 13.0 0.00 0.00 0.00 58 1017.9
20210624180817 77 115 7.0 12.0 0.00 0.00 0.00 57 1017.8
20210624175817 78 138 6.0 12.0 0.00 0.00 0.00 56 1017.8
20210624174818 78 137 7.0 12.0 0.00 0.00 0.00 56 1017.7
20210624174317 78 122 6.0 13.0 0.00 0.00 0.00 56 1017.7
20210624173817 78 135 7.0 12.0 0.00 0.00 0.00 55 1017.8
20210624173317 78 137 7.0 10.0 0.00 0.00 0.00 55 1017.8
20210624172817 79 126 6.0 10.0 0.00 0.00 0.00 54 1017.8
20210624172316 79 97 5.0 10.0 0.00 0.00 0.00 56 1017.8
20210624171817 79 136 6.0 12.0 0.00 0.00 0.00 56 1017.7
20210624170816 79 150 10.0 14.0 0.00 0.00 0.00 56 1017.8
20210624170317 79 137 6.0 12.0 0.00 0.00 0.00 56 1017.8
20210624164817 79 140 9.0 14.0 0.00 0.00 0.00 56 1017.8
20210624164317 79 135 7.0 15.0 0.00 0.00 0.00 55 1017.9
20210624163816 79 116 6.0 14.0 0.00 0.00 0.00 55 1017.9
20210624163317 79 129 7.0 14.0 0.00 0.00 0.00 54 1017.9
20210624162816 79 137 9.0 15.0 0.00 0.00 0.00 54 1018.0
20210624162317 80 124 10.0 14.0 0.00 0.00 0.00 54 1018.0
20210624161816 80 137 10.0 15.0 0.00 0.00 0.00 54 1018.1
20210624161317 80 128 8.0 12.0 0.00 0.00 0.00 53 1018.1
20210624160317 80 142 7.0 12.0 0.00 0.00 0.00 53 1018.1
20210624155816 80 122 7.0 14.0 0.00 0.00 0.00 56 1018.1
20210624155316 79 116 6.0 12.0 0.00 0.00 0.00 56 1018.2
20210624154816 79 108 7.0 13.0 0.00 0.00 0.00 55 1018.2
20210624154317 80 106 9.0 14.0 0.00 0.00 0.00 53 1018.3
20210624153817 80 110 7.0 13.0 0.00 0.00 0.00 54 1018.3
20210624153316 80 115 6.0 13.0 0.00 0.00 0.00 54 1018.4
20210624152816 80 114 7.0 14.0 0.00 0.00 0.00 54 1018.4
20210624152318 80 106 7.0 12.0 0.00 0.00 0.00 54 1018.4
20210624151816 80 122 8.0 14.0 0.00 0.00 0.00 54 1018.5
20210624151318 80 105 7.0 13.0 0.00 0.00 0.00 53 1018.4
20210624150316 81 106 6.0 12.0 0.00 0.00 0.00 53 1018.5
20210624145816 79 105 7.0 13.0 0.00 0.00 0.00 53 1018.4
20210624145317 80 120 11.0 14.0 0.00 0.00 0.00 54 1018.5
20210624144816 80 103 6.0 13.0 0.00 0.00 0.00 54 1018.5
20210624144317 81 114 8.0 14.0 0.00 0.00 0.00 52 1018.5
20210624143816 80 103 9.0 13.0 0.00 0.00 0.00 52 1018.5
20210624143316 79 101 9.0 15.0 0.00 0.00 0.00 54 1018.6
20210624142816 81 99 7.0 13.0 0.00 0.00 0.00 51 1018.6
20210624141317 80 117 8.0 18.0 0.00 0.00 0.00 50 1018.7
20210624140817 81 98 7.0 13.0 0.00 0.00 0.00 49 1018.7
20210624140316 81 112 7.0 13.0 0.00 0.00 0.00 50 1018.7
20210624135816 82 91 7.0 13.0 0.00 0.00 0.00 50 1018.7
20210624134817 80 123 7.0 16.0 0.00 0.00 0.00 52 1018.8
20210624134317 81 90 6.0 16.0 0.00 0.00 0.00 52 1018.8
20210624133316 81 103 7.0 13.0 0.00 0.00 0.00 49 1018.9
20210624132817 81 126 9.0 18.0 0.00 0.00 0.00 51 1018.9